| time (UTC) | temp C | wind direction | speed KPH | gust KPH | rain 1hr cm | rain 24hr cm | rain mn cm | humidity % | barometer mb |
| 20260507210958 | 19 | 0.0 | 0.0 | 0.00 | 0.00 | 0.00 | 52 | 1017.8 | |
| 20260507210005 | 18 | 0.0 | 0.0 | 0.00 | 0.00 | 0.00 | 50 | 1018.0 | |
| 20260507203959 | 18 | 0.0 | 0.0 | 0.00 | 0.00 | 0.00 | 54 | 1018.2 | |
| 20260507203000 | 18 | 0.0 | 0.0 | 0.00 | 0.00 | 0.00 | 52 | 1018.4 | |
| 20260507202000 | 18 | 0.0 | 0.0 | 0.00 | 0.00 | 0.00 | 54 | 1018.5 | |
| 20260507200958 | 17 | 0.0 | 0.0 | 0.00 | 0.00 | 0.00 | 55 | 1018.6 | |
| 20260507200000 | 17 | 0.0 | 0.0 | 0.00 | 0.00 | 0.00 | 58 | 1018.7 | |
| 20260507194958 | 17 | 0.0 | 0.0 | 0.00 | 0.00 | 0.00 | 59 | 1018.8 | |
| 20260507193958 | 17 | 0.0 | 0.0 | 0.00 | 0.00 | 0.00 | 57 | 1018.9 | |
| 20260507193000 | 16 | 0.0 | 0.0 | 0.00 | 0.00 | 0.00 | 60 | 1019.0 | |
| 20260507191957 | 16 | 0.0 | 0.0 | 0.00 | 0.00 | 0.00 | 62 | 1019.2 | |
| 20260507190958 | 16 | 0.0 | 0.0 | 0.00 | 0.00 | 0.00 | 61 | 1019.3 | |
| 20260507190000 | 16 | 0.0 | 0.0 | 0.00 | 0.00 | 0.00 | 64 | 1019.4 | |
| 20260507184958 | 15 | 0.0 | 0.0 | 0.00 | 0.00 | 0.00 | 66 | 1019.5 | |
| 20260507183958 | 15 | 0.0 | 0.0 | 0.00 | 0.00 | 0.00 | 68 | 1019.6 | |
| 20260507183000 | 15 | 0.0 | 0.0 | 0.00 | 0.00 | 0.00 | 64 | 1019.7 | |
| 20260507181957 | 15 | 0.0 | 0.0 | 0.00 | 0.00 | 0.00 | 68 | 1019.8 | |
| 20260507180957 | 15 | 0.0 | 0.0 | 0.00 | 0.00 | 0.00 | 67 | 1019.9 | |
| 20260507175959 | 15 | 0.0 | 0.0 | 0.00 | 0.00 | 0.00 | 68 | 1019.9 | |
| 20260507174958 | 14 | 0.0 | 0.0 | 0.00 | 0.00 | 0.00 | 69 | 1020.0 | |
| 20260507173958 | 14 | 0.0 | 0.0 | 0.00 | 0.00 | 0.00 | 70 | 1020.1 | |
| 20260507171958 | 13 | 0.0 | 0.0 | 0.00 | 0.00 | 0.00 | 71 | 1020.3 | |
| 20260507170959 | 13 | 0.0 | 0.0 | 0.00 | 0.00 | 0.00 | 71 | 1020.2 | |
| 20260507164958 | 13 | 0.0 | 0.0 | 0.00 | 0.00 | 0.00 | 73 | 1020.3 | |
| 20260507163958 | 12 | 0.0 | 0.0 | 0.00 | 0.00 | 0.00 | 73 | 1020.5 | |
| 20260507163000 | 12 | 0.0 | 0.0 | 0.00 | 0.00 | 0.00 | 74 | 1020.4 | |
| 20260507160958 | 12 | 0.0 | 0.0 | 0.00 | 0.00 | 0.00 | 75 | 1020.4 | |
| 20260507160001 | 12 | 0.0 | 0.0 | 0.00 | 0.00 | 0.00 | 76 | 1020.4 | |
| 20260507154959 | 12 | 0.0 | 0.0 | 0.00 | 0.00 | 0.00 | 76 | 1020.5 | |
| 20260507153958 | 12 | 0.0 | 0.0 | 0.00 | 0.00 | 0.00 | 76 | 1020.5 | |
| 20260507152959 | 12 | 0.0 | 0.0 | 0.00 | 0.00 | 0.00 | 76 | 1020.5 | |
| 20260507151957 | 12 | 0.0 | 0.0 | 0.00 | 0.00 | 0.00 | 76 | 1020.5 | |
| 20260507150958 | 12 | 0.0 | 0.0 | 0.00 | 0.00 | 0.00 | 77 | 1020.5 | |
| 20260507145959 | 11 | 0.0 | 0.0 | 0.00 | 0.00 | 0.00 | 77 | 1020.5 | |
| 20260507144959 | 11 | 0.0 | 0.0 | 0.00 | 0.00 | 0.00 | 77 | 1020.4 | |
| 20260507143958 | 11 | 0.0 | 0.0 | 0.00 | 0.00 | 0.00 | 78 | 1020.4 | |
| 20260507143000 | 11 | 0.0 | 0.0 | 0.00 | 0.00 | 0.00 | 78 | 1020.3 | |
| 20260507141958 | 11 | 0.0 | 0.0 | 0.00 | 0.00 | 0.00 | 79 | 1020.3 | |
| 20260507140002 | 11 | 0.0 | 0.0 | 0.00 | 0.00 | 0.00 | 79 | 1020.2 | |
| 20260507134959 | 11 | 0.0 | 0.0 | 0.00 | 0.00 | 0.00 | 79 | 1020.1 | |
| 20260507133959 | 11 | 0.0 | 0.0 | 0.00 | 0.00 | 0.00 | 79 | 1020.0 | |
| 20260507125959 | 11 | 0.0 | 0.0 | 0.00 | 0.00 | 0.00 | 79 | 1019.9 | |
| 20260507124957 | 11 | 0.0 | 0.0 | 0.00 | 0.00 | 0.00 | 78 | 1020.0 | |
| 20260507122959 | 12 | 0.0 | 0.0 | 0.00 | 0.00 | 0.00 | 78 | 1020.0 | |
| 20260507121958 | 12 | 0.0 | 0.0 | 0.00 | 0.00 | 0.00 | 78 | 1020.0 | |
| 20260507120958 | 12 | 0.0 | 0.0 | 0.00 | 0.00 | 0.00 | 78 | 1020.1 | |
| 20260507115959 | 12 | 0.0 | 0.0 | 0.00 | 0.00 | 0.00 | 78 | 1020.1 | |
| 20260507114957 | 12 | 0.0 | 0.0 | 0.00 | 0.00 | 0.00 | 78 | 1020.2 | |
| 20260507113957 | 12 | 0.0 | 0.0 | 0.00 | 0.00 | 0.00 | 79 | 1020.2 | |
| 20260507112959 | 12 | 0.0 | 0.0 | 0.00 | 0.00 | 0.00 | 79 | 1020.2 | |
| 20260507110957 | 12 | 0.0 | 0.0 | 0.00 | 0.00 | 0.00 | 78 | 1020.2 | |
| 20260507105958 | 12 | 0.0 | 0.0 | 0.00 | 0.00 | 0.00 | 78 | 1020.2 | |
| 20260507104958 | 12 | 0.0 | 0.0 | 0.00 | 0.00 | 0.00 | 78 | 1020.3 | |
| 20260507102959 | 12 | 0.0 | 0.0 | 0.00 | 0.00 | 0.00 | 78 | 1020.4 | |
| 20260507101958 | 12 | 0.0 | 0.0 | 0.00 | 0.00 | 0.00 | 78 | 1020.4 | |
| 20260507100958 | 12 | 0.0 | 0.0 | 0.00 | 0.00 | 0.00 | 78 | 1020.5 | |
| 20260507095958 | 12 | 0.0 | 0.0 | 0.00 | 0.00 | 0.00 | 79 | 1020.5 | |
| 20260507094957 | 12 | 0.0 | 0.0 | 0.00 | 0.00 | 0.00 | 78 | 1020.6 | |
| 20260507092958 | 12 | 0.0 | 0.0 | 0.00 | 0.00 | 0.00 | 77 | 1020.7 | |
| 20260507090957 | 12 | 0.0 | 0.0 | 0.00 | 0.00 | 0.00 | 77 | 1020.9 | |
| 20260507090001 | 12 | 0.0 | 0.0 | 0.00 | 0.00 | 0.00 | 77 | 1020.9 | |
| 20260507083958 | 12 | 0.0 | 0.0 | 0.00 | 0.00 | 0.00 | 77 | 1020.9 | |
| 20260507081958 | 12 | 0.0 | 0.0 | 0.00 | 0.00 | 0.00 | 77 | 1020.9 | |
| 20260507080957 | 12 | 0.0 | 0.0 | 0.00 | 0.00 | 0.00 | 77 | 1020.9 | |
| 20260507080001 | 13 | 0.0 | 0.0 | 0.00 | 0.00 | 0.00 | 78 | 1020.8 | |
| 20260507074000 | 13 | 0.0 | 0.0 | 0.00 | 0.00 | 0.00 | 79 | 1020.9 | |
| 20260507073012 | 13 | 0.0 | 0.0 | 0.00 | 0.00 | 0.00 | 79 | 1020.8 | |
| 20260507071959 | 13 | 0.0 | 0.0 | 0.00 | 0.00 | 0.00 | 79 | 1020.7 | |
| 20260507070958 | 13 | 0.0 | 0.0 | 0.00 | 0.00 | 0.00 | 79 | 1020.7 | |
| 20260507070002 | 13 | 0.0 | 0.0 | 0.00 | 0.00 | 0.00 | 79 | 1020.7 | |
| 20260507064000 | 13 | 0.0 | 0.0 | 0.00 | 0.00 | 0.00 | 79 | 1020.7 | |
| 20260507063000 | 13 | 0.0 | 0.0 | 0.00 | 0.00 | 0.00 | 78 | 1020.7 | |
| 20260507061959 | 13 | 0.0 | 0.0 | 0.00 | 0.00 | 0.00 | 78 | 1020.8 | |
| 20260507060001 | 13 | 0.0 | 0.0 | 0.00 | 0.00 | 0.00 | 79 | 1020.8 | |
| 20260507055000 | 13 | 0.0 | 0.0 | 0.00 | 0.00 | 0.00 | 79 | 1020.9 | |
| 20260507053959 | 13 | 0.0 | 0.0 | 0.00 | 0.00 | 0.00 | 80 | 1020.8 | |
| 20260507053003 | 13 | 0.0 | 0.0 | 0.00 | 0.00 | 0.00 | 79 | 1020.8 | |
| 20260507051000 | 13 | 0.0 | 0.0 | 0.00 | 0.00 | 0.00 | 78 | 1020.8 | |
| 20260507050001 | 14 | 0.0 | 0.0 | 0.00 | 0.00 | 0.00 | 77 | 1020.8 | |
| 20260507043959 | 14 | 0.0 | 0.0 | 0.00 | 0.00 | 0.00 | 77 | 1020.7 | |
| 20260507041959 | 15 | 0.0 | 0.0 | 0.00 | 0.00 | 0.00 | 76 | 1020.6 | |
| 20260507040959 | 15 | 0.0 | 0.0 | 0.00 | 0.00 | 0.00 | 76 | 1020.5 | |
| 20260507040005 | 15 | 0.0 | 0.0 | 0.00 | 0.00 | 0.00 | 76 | 1020.4 | |
| 20260507035000 | 15 | 0.0 | 0.0 | 0.00 | 0.00 | 0.00 | 76 | 1020.3 | |
| 20260507034000 | 15 | 0.0 | 0.0 | 0.00 | 0.00 | 0.00 | 75 | 1020.2 | |
| 20260507033000 | 15 | 0.0 | 0.0 | 0.00 | 0.00 | 0.00 | 75 | 1020.0 | |
| 20260507031959 | 16 | 0.0 | 0.0 | 0.00 | 0.00 | 0.00 | 75 | 1019.9 | |
| 20260507030959 | 16 | 0.0 | 0.0 | 0.00 | 0.00 | 0.00 | 75 | 1019.7 | |
| 20260507030003 | 16 | 0.0 | 0.0 | 0.00 | 0.00 | 0.00 | 75 | 1019.6 | |
| 20260507024959 | 16 | 0.0 | 0.0 | 0.00 | 0.00 | 0.00 | 74 | 1019.5 | |
| 20260507023958 | 16 | 0.0 | 0.0 | 0.00 | 0.00 | 0.00 | 74 | 1019.4 | |
| 20260507023000 | 16 | 0.0 | 0.0 | 0.00 | 0.00 | 0.00 | 74 | 1019.4 | |
| 20260507021959 | 17 | 0.0 | 0.0 | 0.00 | 0.00 | 0.00 | 73 | 1019.3 | |
| 20260507020959 | 17 | 0.0 | 0.0 | 0.00 | 0.00 | 0.00 | 73 | 1019.4 | |
| 20260507020002 | 17 | 0.0 | 0.0 | 0.00 | 0.00 | 0.00 | 73 | 1019.4 | |
| 20260507014959 | 17 | 0.0 | 0.0 | 0.00 | 0.00 | 0.00 | 72 | 1019.5 | |
| 20260507013959 | 17 | 0.0 | 0.0 | 0.00 | 0.00 | 0.00 | 72 | 1019.5 | |
| 20260507013000 | 17 | 0.0 | 0.0 | 0.00 | 0.00 | 0.00 | 71 | 1019.6 | |
| 20260507012000 | 18 | 0.0 | 0.0 | 0.00 | 0.00 | 0.00 | 71 | 1019.6 | |
| 20260507010001 | 18 | 0.0 | 0.0 | 0.00 | 0.00 | 0.00 | 70 | 1019.4 | |
| 20260507005000 | 18 | 0.0 | 0.0 | 0.00 | 0.00 | 0.00 | 68 | 1019.5 | |
| 20260507003959 | 18 | 0.0 | 0.0 | 0.00 | 0.00 | 0.00 | 68 | 1019.4 | |
| 20260507003002 | 19 | 0.0 | 0.0 | 0.00 | 0.00 | 0.00 | 67 | 1019.4 | |
| 20260507001959 | 20 | 0.0 | 0.0 | 0.00 | 0.00 | 0.00 | 68 | 1019.2 | |
| 20260507000959 | 20 | 0.0 | 0.0 | 0.00 | 0.00 | 0.00 | 67 | 1019.2 | |
| 20260507000000 | 20 | 0.0 | 0.0 | 0.00 | 0.00 | 0.00 | 69 | 1019.1 | |
| 20260506234007 | 20 | 0.0 | 0.0 | 0.00 | 0.00 | 0.00 | 70 | 1019.0 | |
| 20260506233002 | 20 | 0.0 | 0.0 | 0.00 | 0.00 | 0.00 | 70 | 1019.0 | |
| 20260506231959 | 20 | 0.0 | 0.0 | 0.00 | 0.00 | 0.00 | 69 | 1019.1 | |
| 20260506230959 | 20 | 0.0 | 0.0 | 0.00 | 0.00 | 0.00 | 69 | 1019.0 | |
| 20260506230000 | 20 | 0.0 | 0.0 | 0.00 | 0.00 | 0.00 | 69 | 1019.1 | |
| 20260506223958 | 20 | 0.0 | 0.0 | 0.00 | 0.00 | 0.00 | 70 | 1019.4 | |
| 20260506222959 | 20 | 0.0 | 0.0 | 0.00 | 0.00 | 0.00 | 68 | 1019.5 | |
| 20260506221959 | 20 | 0.0 | 0.0 | 0.00 | 0.00 | 0.00 | 69 | 1019.6 | |
| 20260506220959 | 20 | 0.0 | 0.0 | 0.00 | 0.00 | 0.00 | 70 | 1019.6 | |
| 20260506220005 | 19 | 0.0 | 0.0 | 0.00 | 0.00 | 0.00 | 71 | 1019.7 | |
| 20260506215000 | 19 | 0.0 | 0.0 | 0.00 | 0.00 | 0.00 | 69 | 1019.7 | |
| 20260506213959 | 19 | 0.0 | 0.0 | 0.00 | 0.00 | 0.00 | 71 | 1019.5 | |
| 20260506211959 | 18 | 0.0 | 0.0 | 0.00 | 0.00 | 0.00 | 74 | 1019.8 |